Wind_Speed
34 34 35 36 38 39 37 34 32 31 32 31 31 30 28 28 26 26 24 23 22 21 20 20 20 19 19 18 18 17 16 16 15 14 13 12 11 10 10 9 9 8 8 7 7 7 7 7 7
35 35 37 38 40 41 37 34 33 32 33 33 33 32 31 30 29 28 25 24 23 23 22 21 21 20 20 20 19 19 19 18 17 16 15 14 13 12 11 11 10 10 9 9 8 8 8 8 8
36 37 38 40 42 41 37 35 34 34 35 35 34 34 33 32 31 30 28 26 25 25 23 23 22 22 21 21 21 20 20 20 19 18 17 16 15 14 14 13 12 12 11 10 10 9 9 9 9
36 37 40 41 42 40 39 37 36 36 37 37 36 36 35 33 32 31 30 29 28 26 25 25 24 24 23 22 22 22 21 21 20 20 19 18 17 16 15 14 14 13 12 12 11 11 11 11 11
37 39 40 42 42 41 40 39 38 38 38 38 38 38 36 35 34 34 33 31 30 29 27 27 26 25 25 24 24 23 22 22 21 21 20 20 19 18 17 16 15 14 14 13 13 13 12 12 12
38 39 41 42 41 41 41 39 39 39 39 39 40 39 38 37 36 36 35 33 32 31 30 28 28 27 27 26 26 25 25 24 23 23 22 22 21 20 19 18 17 16 16 15 15 15 14 14 14
38 39 40 40 39 39 40 39 39 39 39 40 41 41 40 39 38 37 37 36 34 33 32 30 30 29 29 28 28 27 27 26 25 25 25 24 23 22 21 20 19 18 17 17 17 17 16 16 16
38 39 39 40 40 38 38 39 40 40 40 41 42 42 41 40 40 39 39 38 36 35 34 32 31 31 30 30 30 29 29 28 27 27 27 26 25 25 24 22 21 20 19 18 18 18 18 18 18
37 39 39 39 40 40 39 40 40 41 41 41 42 41 41 42 41 41 41 40 39 37 36 34 33 32 32 32 32 32 31 30 29 29 29 28 27 27 25 24 23 21 21 20 20 20 20 19 20
36 38 38 37 40 41 41 41 41 42 42 42 42 41 42 42 42 42 41 41 40 39 38 36 35 34 34 34 34 33 32 32 31 30 30 30 29 28 27 26 25 23 22 22 22 21 21 21 21
36 38 38 39 41 42 42 42 42 43 44 42 42 42 42 42 42 42 42 42 41 40 39 39 37 36 36 36 36 35 34 34 33 32 31 31 31 30 29 28 27 26 24 23 23 23 23 22 22
36 37 39 39 40 42 42 42 43 43 43 43 43 42 43 43 43 43 43 43 42 42 41 40 38 38 37 37 37 36 36 35 35 34 33 32 32 31 30 29 29 28 26 25 25 24 24 24 24
34 36 37 38 39 41 42 42 43 43 43 44 43 43 43 43 43 43 43 44 44 43 42 41 40 39 39 39 38 38 37 36 36 34 34 34 33 32 32 31 30 30 28 28 26 26 26 26 26
35 36 37 38 39 41 41 41 42 42 44 44 44 43 44 44 44 43 43 44 44 44 43 42 41 40 39 39 39 39 39 38 37 36 35 35 35 34 33 32 31 31 30 30 29 27 27 27 27
33 35 37 38 39 42 42 41 42 42 44 45 45 44 45 45 45 44 44 44 44 44 43 42 41 41 41 41 40 39 39 39 39 38 36 36 36 35 34 34 33 33 32 31 30 29 28 28 28
31 34 35 37 38 40 42 42 41 41 42 45 46 45 46 46 46 46 45 44 44 44 43 43 42 42 41 41 40 40 40 39 39 39 38 38 37 36 36 35 35 34 34 33 32 31 30 29 29
31 33 34 35 37 40 42 42 41 40 41 42 45 47 46 47 47 46 45 45 44 44 43 43 42 41 41 41 40 40 40 39 39 39 38 38 38 38 37 37 36 36 35 34 33 32 32 31 30
28 30 32 32 33 37 40 41 41 40 41 42 43 46 47 47 47 47 46 45 44 44 43 43 43 42 41 40 40 40 39 39 39 39 39 39 39 38 38 37 36 36 36 35 34 34 33 32 31
27 28 30 31 32 34 36 38 39 40 41 41 43 45 46 47 48 48 47 46 44 44 44 44 44 43 42 41 40 40 40 40 40 39 39 40 40 40 39 38 38 38 37 37 36 35 34 33 32
26 27 28 30 31 32 34 35 36 38 40 40 42 44 45 47 48 48 48 46 45 45 44 43 42 43 43 42 41 41 41 41 41 40 41 41 41 41 40 40 38 39 38 38 37 35 35 34 34
24 24 26 27 28 30 32 33 34 36 38 39 40 43 44 46 48 48 48 47 46 45 45 43 43 43 44 44 43 43 43 42 42 42 42 42 41 41 41 40 39 38 38 37 37 36 35 35 35
22 22 23 24 26 26 28 30 31 34 36 38 38 40 42 43 46 48 48 48 47 46 45 44 44 43 43 44 43 43 42 42 43 42 42 42 42 42 42 42 41 39 38 37 37 36 36 36 35
20 20 21 22 24 25 26 28 29 31 33 35 36 37 39 41 44 46 47 47 46 45 45 44 45 43 43 44 42 43 43 43 44 44 43 42 42 42 42 42 42 41 39 38 37 37 37 36 36
19 19 20 21 22 24 24 26 27 28 30 32 33 35 37 38 41 44 45 46 46 46 45 46 44 44 43 43 42 41 42 43 45 46 45 44 43 43 41 41 41 41 40 39 38 37 37 37 37
17 18 18 19 19 21 22 25 25 26 28 30 31 33 35 36 39 41 43 44 45 44 43 45 44 44 43 43 43 42 42 43 44 45 46 44 44 43 42 41 40 40 39 39 39 38 38 37 38
16 16 16 17 18 19 20 22 24 25 26 28 29 31 34 35 37 39 41 43 43 43 44 44 43 43 43 44 43 43 43 43 43 44 44 45 45 44 43 43 42 41 40 39 38 38 38 38 38
15 15 16 17 18 18 20 20 22 23 24 26 27 29 32 34 36 37 40 41 41 41 42 43 42 42 42 44 45 44 43 43 43 43 44 45 45 44 43 43 42 41 40 40 38 39 39 40 40
15 16 17 17 18 17 18 19 20 22 23 24 27 29 30 32 33 36 38 40 41 42 41 43 43 43 42 43 43 42 43 44 44 44 43 44 44 43 43 42 42 41 41 40 40 38 38 40 40
15 15 16 17 18 18 18 17 18 20 21 23 25 27 29 31 33 34 36 38 40 40 41 43 43 43 43 43 43 42 42 42 43 43 44 44 45 44 42 41 41 41 41 41 42 41 40 39 39
15 15 15 17 17 18 19 17 16 19 21 23 24 25 26 29 31 33 34 36 38 38 39 40 42 43 44 43 43 43 43 42 42 43 44 45 45 45 43 41 41 41 41 42 42 41 40 40 39
Wind_Direction
246 245 243 241 241 241 242 241 240 240 239 238 237 236 234 232 231 232 231 230 229 229 228 227 226 226 226 226 226 227 227 229 230 230 230 230 231 232 235 238 242 247 253 258 263 269 273 278 282
247 245 243 241 241 242 242 241 240 240 239 238 237 236 234 232 231 231 231 229 229 229 228 227 227 228 228 228 228 229 230 231 231 232 232 234 234 236 239 241 245 249 255 259 262 268 272 274 279
247 246 244 243 243 243 243 241 240 240 239 238 237 236 234 233 231 231 229 228 228 229 229 229 229 229 230 230 230 230 231 232 232 232 234 237 239 241 242 244 247 250 255 259 262 267 270 273 278
248 247 244 244 244 243 242 241 239 239 238 238 237 236 235 233 232 231 229 228 228 229 230 231 231 231 232 232 232 232 232 233 234 235 236 237 241 243 244 245 248 251 254 258 262 265 267 272 277
249 248 246 245 245 244 243 242 241 240 239 238 237 236 235 233 232 231 230 229 229 229 230 231 233 234 234 234 235 234 234 235 235 236 237 238 240 243 245 246 249 252 254 257 261 265 267 271 276
249 248 248 246 246 246 245 243 242 241 240 238 237 236 235 233 232 231 230 230 230 231 231 231 233 234 235 235 235 236 235 236 236 237 238 239 240 241 244 246 249 252 254 257 261 264 267 270 274
251 249 249 248 247 247 245 243 241 240 240 239 238 237 234 233 232 231 230 230 231 232 232 232 234 235 235 235 235 237 237 236 237 238 238 239 240 241 244 246 249 252 255 257 260 263 267 269 273
252 250 250 248 247 246 245 243 241 240 240 239 237 237 234 232 232 231 230 230 231 232 233 233 234 236 237 236 236 237 237 236 236 239 239 240 240 242 244 246 248 251 254 257 260 262 266 269 272
251 250 250 250 248 247 245 243 242 241 240 239 237 236 235 233 232 231 230 230 231 232 233 235 234 236 237 238 237 237 237 236 236 239 240 240 241 242 244 247 248 251 254 256 260 263 264 268 272
251 250 251 251 249 248 246 245 242 241 240 239 238 236 234 233 232 232 231 230 231 232 233 235 235 236 237 238 238 238 237 237 237 239 240 241 242 242 244 247 249 250 253 256 260 263 265 268 271
251 250 251 250 249 248 246 244 243 241 239 239 238 236 234 232 232 232 232 231 231 232 233 234 235 236 237 238 238 238 238 237 237 238 239 242 243 244 245 246 248 250 252 255 259 262 266 269 270
253 251 252 250 249 248 245 243 242 241 239 238 237 236 234 232 231 231 232 231 232 232 233 235 236 236 237 238 238 238 239 238 238 239 240 241 243 245 245 246 249 251 253 255 258 261 265 269 271
253 250 249 248 247 247 246 242 241 239 237 237 236 235 234 233 231 231 231 232 232 233 234 235 236 237 237 238 238 239 240 240 239 239 240 241 243 245 246 247 249 252 255 256 259 262 266 269 271
254 251 249 247 246 246 246 243 241 239 238 236 235 234 233 232 231 231 231 231 232 233 234 236 237 238 238 239 238 238 239 240 239 239 240 242 244 245 247 248 249 252 254 257 260 262 265 268 271
257 254 251 247 246 245 244 243 241 240 238 236 234 233 232 232 231 230 230 231 232 233 234 235 235 236 237 238 237 236 237 238 240 240 241 242 244 246 247 249 250 252 254 257 259 262 265 269 271
258 255 253 250 246 245 243 242 241 240 238 236 234 233 231 231 231 230 230 231 232 232 233 233 235 235 236 236 237 237 237 237 238 239 241 242 244 246 247 248 251 253 255 257 259 262 265 269 271
259 256 254 251 247 245 244 242 241 241 238 237 235 234 232 231 231 231 231 231 230 231 231 232 234 236 235 235 236 236 237 238 239 240 241 243 244 245 248 249 250 252 254 256 259 262 265 268 270
264 261 255 250 248 246 245 244 242 241 239 237 235 234 232 230 230 231 230 230 229 230 231 232 234 235 235 234 234 235 236 238 239 241 242 244 244 245 246 248 249 252 254 256 258 261 264 267 269
265 265 259 250 249 248 247 245 241 240 238 236 235 233 232 230 230 230 229 229 229 230 231 232 234 235 235 235 233 235 235 236 238 240 241 243 244 246 247 248 249 252 254 256 258 260 263 266 269
267 265 259 254 252 250 249 246 242 240 238 236 234 233 231 230 230 229 229 229 229 229 230 231 233 234 234 235 235 236 237 237 239 241 241 243 245 246 248 249 250 253 255 256 257 260 263 266 269
269 266 263 259 254 252 249 247 244 240 238 236 235 233 232 230 229 228 228 229 229 229 229 232 233 233 234 235 237 237 238 238 240 241 242 244 245 247 248 251 251 253 254 256 258 260 263 266 269
270 268 265 260 253 252 250 249 245 241 238 237 236 234 232 230 228 228 228 229 230 230 230 232 234 235 233 235 237 238 238 239 239 239 240 243 245 247 249 251 252 254 254 256 258 260 262 265 268
276 271 266 260 254 252 251 249 246 242 240 237 236 235 233 230 228 227 227 229 231 231 232 233 233 234 233 234 237 239 239 239 238 238 239 242 244 246 248 250 252 254 255 256 259 261 264 266 268
278 272 267 258 256 253 250 249 246 243 239 237 238 236 233 230 227 228 228 230 231 232 234 233 234 234 234 234 236 239 239 239 238 238 239 241 243 244 246 248 250 253 255 257 259 262 265 267 269
280 272 267 265 261 257 250 249 246 242 238 237 237 235 232 232 230 229 229 230 231 232 233 233 235 235 235 235 236 238 239 240 239 238 239 240 242 244 246 249 251 253 255 258 259 262 264 266 268
279 270 262 265 264 260 253 251 248 242 239 237 236 234 232 233 232 231 231 231 232 233 232 232 235 236 236 236 237 239 239 239 241 240 239 240 243 246 247 249 251 253 255 257 259 262 264 265 268
280 269 266 264 264 263 258 255 248 243 239 236 237 235 234 233 232 232 234 233 233 234 235 235 236 236 237 237 238 240 241 240 242 244 243 243 244 246 247 249 250 252 255 256 258 261 263 265 268
277 271 266 264 264 263 262 257 252 246 243 240 237 236 236 235 235 235 235 235 235 235 235 236 238 238 236 235 237 240 242 243 244 245 246 245 244 245 247 249 252 253 255 257 258 261 264 266 267
281 276 268 264 261 262 265 262 254 248 245 242 239 238 238 238 238 238 237 236 237 238 239 239 239 239 237 236 237 240 242 243 244 246 246 245 245 245 247 248 250 254 256 258 260 262 264 265 266
284 280 272 265 265 266 267 265 253 249 246 243 242 243 242 240 242 241 240 239 238 239 241 241 241 240 239 239 240 241 242 243 244 245 246 247 247 245 246 247 250 254 256 258 260 262 263 264 266
Height
5804 5806 5808 5809 5810 5811 5815 5821 5824 5827 5830 5832 5834 5837 5840 5843 5846 5849 5850 5851 5852 5854 5856 5857 5859 5861 5862 5863 5864 5866 5867 5868 5869 5870 5870 5871 5871 5872 5872 5872 5873 5873 5873 5873 5873 5873 5872 5872 5872
5796 5797 5799 5800 5800 5803 5810 5815 5818 5821 5823 5825 5828 5831 5833 5836 5839 5842 5845 5846 5848 5850 5852 5854 5856 5857 5858 5860 5861 5862 5864 5865 5866 5867 5868 5868 5869 5869 5870 5870 5871 5871 5871 5871 5871 5871 5871 5870 5870
5787 5788 5790 5791 5792 5797 5804 5808 5811 5813 5815 5818 5820 5823 5827 5831 5834 5836 5839 5841 5843 5845 5847 5849 5851 5853 5855 5856 5857 5859 5860 5861 5863 5864 5865 5865 5866 5867 5867 5868 5868 5868 5869 5869 5869 5869 5869 5868 5868
5777 5779 5780 5782 5784 5791 5796 5800 5803 5805 5807 5810 5813 5816 5820 5824 5827 5831 5833 5836 5838 5840 5842 5845 5847 5848 5850 5852 5853 5855 5856 5858 5859 5860 5861 5862 5863 5864 5864 5865 5865 5866 5866 5866 5866 5866 5866 5866 5865
5767 5769 5770 5772 5777 5783 5787 5791 5794 5796 5799 5802 5805 5809 5813 5817 5820 5824 5827 5830 5832 5835 5837 5839 5841 5843 5845 5847 5848 5850 5851 5853 5855 5856 5857 5859 5860 5860 5861 5862 5862 5862 5863 5863 5863 5863 5863 5863 5863
5757 5759 5761 5764 5769 5774 5778 5782 5785 5788 5790 5794 5796 5800 5805 5809 5813 5816 5820 5823 5826 5829 5831 5833 5836 5838 5840 5841 5843 5845 5846 5848 5850 5851 5853 5854 5855 5857 5857 5858 5859 5859 5859 5860 5860 5860 5860 5860 5859
5749 5750 5752 5757 5761 5765 5770 5773 5776 5778 5781 5785 5788 5792 5797 5801 5804 5808 5812 5815 5819 5822 5824 5827 5829 5831 5833 5835 5837 5839 5841 5843 5845 5847 5848 5850 5851 5852 5853 5854 5855 5855 5856 5856 5856 5857 5857 5856 5856
5739 5741 5743 5747 5751 5756 5760 5763 5765 5768 5772 5775 5779 5783 5788 5792 5796 5800 5804 5807 5811 5814 5817 5820 5822 5825 5827 5829 5831 5833 5835 5837 5839 5841 5843 5844 5846 5847 5848 5849 5850 5851 5851 5852 5852 5852 5853 5853 5852
5729 5732 5734 5739 5743 5747 5749 5752 5756 5759 5762 5765 5769 5774 5779 5783 5786 5791 5795 5799 5803 5806 5809 5812 5815 5818 5820 5822 5824 5826 5828 5830 5832 5835 5837 5839 5840 5842 5843 5844 5845 5846 5847 5847 5848 5848 5848 5848 5848
5719 5722 5727 5731 5733 5736 5739 5742 5746 5749 5752 5756 5760 5764 5768 5773 5777 5782 5786 5790 5795 5798 5802 5804 5807 5810 5812 5815 5817 5819 5821 5823 5826 5828 5830 5832 5834 5836 5837 5839 5840 5841 5842 5843 5843 5843 5843 5843 5843
5711 5714 5717 5720 5722 5725 5729 5732 5735 5739 5743 5747 5751 5755 5758 5763 5768 5772 5777 5781 5786 5789 5793 5796 5799 5801 5804 5807 5809 5812 5814 5816 5819 5821 5823 5826 5828 5829 5831 5833 5834 5835 5836 5837 5838 5838 5838 5838 5838
5702 5705 5707 5709 5711 5715 5718 5722 5725 5729 5734 5737 5741 5744 5749 5753 5758 5763 5767 5772 5776 5780 5784 5787 5790 5793 5796 5798 5801 5804 5806 5809 5811 5814 5817 5819 5821 5823 5825 5827 5828 5830 5831 5832 5832 5833 5833 5833 5833
5692 5696 5697 5699 5701 5704 5707 5711 5715 5719 5723 5726 5730 5735 5739 5744 5749 5753 5758 5762 5767 5771 5775 5779 5782 5785 5787 5790 5793 5796 5799 5801 5804 5807 5810 5812 5815 5816 5818 5820 5822 5823 5825 5826 5827 5827 5828 5828 5828
5684 5685 5687 5689 5691 5694 5697 5701 5704 5709 5712 5716 5721 5725 5730 5734 5739 5744 5748 5752 5757 5762 5766 5769 5773 5775 5778 5781 5785 5788 5791 5794 5797 5799 5802 5805 5807 5809 5812 5813 5815 5817 5818 5819 5820 5821 5822 5822 5822
5674 5676 5677 5679 5682 5684 5687 5691 5694 5699 5702 5706 5711 5715 5720 5724 5729 5734 5739 5743 5748 5752 5756 5760 5763 5766 5770 5773 5776 5779 5782 5786 5789 5792 5795 5798 5800 5802 5804 5806 5808 5810 5811 5812 5813 5814 5815 5815 5815
5664 5665 5667 5670 5672 5674 5678 5681 5685 5687 5691 5696 5700 5705 5710 5715 5720 5725 5730 5734 5737 5742 5746 5751 5754 5757 5761 5764 5767 5770 5774 5777 5781 5784 5787 5790 5792 5795 5797 5799 5801 5803 5804 5805 5807 5808 5809 5809 5809
5655 5655 5657 5660 5662 5664 5666 5671 5675 5678 5681 5685 5690 5694 5699 5704 5709 5715 5720 5724 5728 5732 5737 5741 5745 5748 5752 5755 5759 5762 5765 5769 5773 5776 5779 5782 5785 5787 5789 5792 5794 5795 5797 5798 5800 5801 5802 5802 5802
5648 5648 5649 5651 5653 5655 5657 5661 5665 5668 5671 5675 5679 5683 5689 5694 5700 5705 5710 5715 5719 5723 5728 5732 5736 5739 5743 5747 5750 5754 5758 5761 5764 5768 5771 5774 5777 5779 5781 5784 5786 5788 5789 5791 5793 5794 5795 5795 5795
5640 5640 5641 5643 5645 5646 5649 5651 5655 5658 5661 5665 5669 5673 5679 5685 5690 5695 5700 5705 5710 5714 5719 5723 5727 5731 5735 5739 5743 5746 5750 5753 5756 5759 5762 5765 5768 5771 5773 5775 5778 5780 5782 5784 5785 5786 5787 5787 5788
5632 5632 5633 5635 5636 5637 5640 5642 5645 5647 5651 5655 5659 5663 5669 5674 5680 5685 5691 5696 5700 5705 5710 5715 5718 5723 5727 5731 5734 5738 5741 5745 5748 5751 5754 5757 5760 5762 5765 5767 5769 5771 5774 5775 5777 5779 5779 5780 5780
5626 5626 5626 5627 5628 5629 5631 5634 5636 5639 5642 5645 5650 5654 5659 5664 5670 5676 5681 5686 5691 5696 5702 5706 5709 5713 5718 5722 5725 5729 5733 5736 5739 5743 5746 5748 5751 5754 5757 5759 5761 5763 5765 5768 5769 5771 5772 5772 5772
5621 5620 5619 5620 5621 5622 5624 5626 5629 5630 5633 5637 5641 5645 5650 5655 5661 5666 5672 5678 5683 5688 5693 5697 5701 5705 5709 5713 5716 5720 5724 5728 5731 5734 5737 5740 5744 5746 5749 5751 5753 5756 5758 5760 5761 5762 5763 5764 5764
5615 5615 5615 5614 5615 5617 5618 5619 5622 5623 5626 5630 5634 5638 5642 5647 5652 5657 5663 5669 5674 5679 5684 5688 5692 5696 5700 5704 5708 5711 5715 5718 5722 5725 5729 5732 5735 5738 5741 5743 5745 5748 5750 5751 5753 5754 5755 5755 5756
5610 5610 5610 5609 5610 5611 5612 5613 5615 5617 5621 5624 5628 5631 5635 5639 5644 5649 5654 5659 5664 5669 5674 5678 5682 5687 5691 5695 5699 5702 5706 5709 5712 5716 5720 5723 5726 5729 5732 5734 5737 5739 5741 5743 5744 5746 5747 5747 5748
5606 5606 5605 5604 5604 5605 5607 5607 5611 5612 5614 5618 5621 5624 5628 5632 5636 5641 5646 5650 5655 5660 5665 5669 5673 5678 5682 5686 5690 5694 5697 5700 5703 5707 5710 5714 5717 5720 5723 5725 5728 5730 5732 5734 5736 5737 5738 5738 5739
5602 5602 5602 5601 5600 5601 5602 5603 5606 5607 5609 5612 5615 5618 5621 5625 5629 5633 5638 5642 5647 5651 5656 5660 5664 5668 5672 5677 5681 5685 5688 5691 5694 5698 5701 5705 5708 5711 5714 5716 5719 5721 5723 5725 5727 5728 5729 5730 5730
5598 5597 5598 5597 5596 5597 5597 5599 5601 5602 5604 5606 5609 5611 5614 5618 5622 5626 5630 5634 5638 5643 5647 5651 5655 5659 5663 5667 5671 5675 5679 5682 5685 5689 5692 5696 5699 5702 5704 5707 5710 5712 5714 5716 5718 5719 5720 5721 5721
5595 5593 5593 5593 5592 5592 5593 5594 5596 5596 5598 5600 5603 5605 5608 5612 5615 5619 5622 5626 5631 5635 5639 5643 5646 5650 5654 5658 5662 5666 5669 5673 5676 5680 5683 5687 5690 5693 5696 5699 5701 5703 5705 5707 5709 5710 5711 5712 5712
5591 5590 5589 5589 5589 5589 5589 5593 5591 5592 5593 5595 5598 5600 5603 5606 5609 5612 5615 5619 5623 5627 5630 5634 5638 5642 5646 5650 5654 5657 5661 5664 5667 5671 5674 5677 5680 5684 5687 5689 5692 5694 5696 5698 5700 5701 5702 5702 5702
5587 5586 5586 5586 5585 5585 5584 5589 5586 5587 5588 5590 5592 5594 5597 5599 5602 5605 5608 5611 5614 5618 5622 5625 5629 5633 5637 5641 5645 5648 5652 5655 5659 5662 5665 5668 5671 5674 5677 5680 5683 5685 5687 5689 5691 5692 5692 5693 5693